STARLINK-35909

Last updated on Tue Dec 16 2025 00:02:05 GMT+0000 (Coordinated Universal Time)

1 66496U 25263M 25349.32654907 .00065943 00000+0 11179-2 0 9995 2 66496 42.9953 109.9926 0000378 36.5555 323.5331 15.50641030 5963
UTC large
Height (km)
Speed (km/s)
/
Latitude / Longitude
Inclination (degrees)
Orbital Period (minutes)
Azimuth
Elevation
Range (km)
Doppler Factor

Next 0 passes for location: London (51.5072 / 0.1276)

Sorry there are no passes over London.